TimePDT,TemperatureF,Dew PointF,Humidity,Sea Level PressureIn,VisibilityMPH,Wind Direction,Wind SpeedMPH,Gust SpeedMPH,PrecipitationIn,Events,Conditions,WindDirDegrees,DateUTC
12:53 AM,64.0,39.9,41,30.06,10.0,North,4.6,-,N/A,,Clear,350,2013-07-31 07:53:00
1:53 AM,62.1,41.0,46,30.06,10.0,NNW,5.8,-,N/A,,Clear,330,2013-07-31 08:53:00
2:53 AM,66.9,39.9,37,30.06,10.0,North,11.5,-,N/A,,Clear,360,2013-07-31 09:53:00
3:53 AM,66.9,39.0,36,30.06,10.0,North,12.7,-,N/A,,Clear,360,2013-07-31 10:53:00
4:53 AM,64.9,39.0,39,30.07,10.0,North,11.5,-,N/A,,Clear,10,2013-07-31 11:53:00
5:53 AM,64.0,39.0,40,30.08,10.0,North,12.7,-,N/A,,Clear,360,2013-07-31 12:53:00
6:53 AM,66.0,39.0,37,30.09,10.0,North,11.5,-,N/A,,Clear,10,2013-07-31 13:53:00
7:53 AM,69.1,41.0,36,30.10,10.0,North,10.4,-,N/A,,Clear,350,2013-07-31 14:53:00
8:53 AM,75.0,43.0,32,30.08,10.0,North,12.7,-,N/A,,Clear,350,2013-07-31 15:53:00
9:53 AM,79.0,43.0,28,30.07,10.0,North,16.1,21.9,N/A,,Clear,350,2013-07-31 16:53:00
10:53 AM,84.0,44.1,25,30.05,10.0,North,11.5,-,N/A,,Clear,350,2013-07-31 17:53:00
11:53 AM,88.0,44.1,22,30.02,10.0,North,11.5,17.3,N/A,,Clear,10,2013-07-31 18:53:00
12:53 PM,91.9,43.0,18,29.99,10.0,North,9.2,-,N/A,,Clear,360,2013-07-31 19:53:00
1:53 PM,93.0,41.0,16,29.97,10.0,NNW,5.8,-,N/A,,Clear,340,2013-07-31 20:53:00
2:53 PM,93.0,39.9,16,29.95,10.0,Calm,Calm,-,N/A,,Clear,0,2013-07-31 21:53:00
3:53 PM,91.9,39.9,16,29.94,10.0,Variable,4.6,-,N/A,,Clear,0,2013-07-31 22:53:00
4:53 PM,91.0,41.0,17,29.92,10.0,SW,3.5,-,N/A,,Clear,220,2013-07-31 23:53:00
5:53 PM,89.1,39.9,18,29.91,10.0,SE,3.5,-,N/A,,Partly Cloudy,130,2013-08-01 00:53:00
6:53 PM,86.0,39.9,20,29.93,10.0,SE,9.2,-,N/A,,Mostly Cloudy,130,2013-08-01 01:53:00
7:53 PM,82.9,42.1,24,29.94,10.0,WNW,9.2,-,0.00,,Overcast,290,2013-08-01 02:53:00
8:53 PM,80.1,44.1,28,29.99,10.0,NNW,3.5,-,0.00,Rain,Light Rain,330,2013-08-01 03:53:00
9:53 PM,75.0,46.9,37,29.97,10.0,NNW,3.5,-,0.00,,Clear,340,2013-08-01 04:53:00
10:53 PM,73.9,48.9,41,29.96,10.0,NW,3.5,-,0.00,Rain,Light Rain,320,2013-08-01 05:53:00
11:53 PM,72.0,48.9,44,29.93,10.0,NW,8.1,-,0.00,,Scattered Clouds,310,2013-08-01 06:53:00